Find Starlink 37668

NORAD ID: 100432 Int'l Des: 2026-192 Owner: SPXS Country: US Constellation: starlink operational

Aktuelle Ansicht

3D-Globus wird geladen...

About Starlink 37668

Starlink 37668 (NORAD 100432) is a starlink constellation satellite launched Aug 21, 2026 by SPXS of US. with a mass of 575.00 kg.

Nächste Überflüge

Passes for default location (London). Set your location on the main map for personalized predictions.

Höhenverlauf

Loading altitude history...

Zweizeiliger Elementsatz

1 A0432U 26192AE 26263.42112352 .00045058 00000-0 81284-3 0 9996
2 A0432 53.1600 307.4180 0000959 37.2981 322.8094 15.49333284 5883
Epoch: 20. Sept. 2026 • Age: 15 hours

Aktueller Status

Höhe 432.8 km
Apogäum / Perigäum N/A
Geschwindigkeit 7.65 km/s
Subsatellitenpunkt -41.20°S, 149.46°E
Startdatum 21. Aug. 2026
Alter 30 days
Typ internet

Technische Details

Klassifizierung Payload
Masse 575.00 kg
Trockenmasse 530.00 kg
Länge 0.30 m
Spannweite 29.00 m
Form ? Box + pan
Hersteller SPXS
Bus-Typ Starlink V2MO
Phasenstatus In Orbit
Besitzer/Staat SPXS/US

Most Searched